Flag for U.S.A. Weather past 2 weeks in Wake Island, Wake Island, U.S.A.

Now
83 °F

Passing clouds.


Feels Like: 94 °F
Forecast: 83 / 90 °F
Wind: 7 mph from Northwest

Location: Wake Island Airfld

Current Time: Sep 6, 2015 at 2:21:36 AM

Latest Report: Sep 6, 2015 at 1:58 AM


Visibility: N/A

Pressure: 29.71 "Hg

Humidity: 84%

Dew point: 78 °F

Location of Wake IslandLocation

Historic Weather in Wake Island — Graph

°F

Wake Island temperature yesterday

Maximum temperature yesterday: 89 °F (at 2:58 PM)
Minimum temperature yesterday: 83 °F (at 3:58 AM)
Average temperature yesterday: 86 °F

Past Weeks' High & Low Weather Summary

 TemperatureHumidityPressure
High90 °F (Sep 4, 1:58 PM)94% (Aug 30, 8:03 AM)29.94 "Hg (Aug 30, 8:03 AM)
Low80 °F (Aug 27, 5:58 AM)62% (Sep 4, 4:58 PM)29.66 "Hg (Aug 27, 4:58 PM)
Average85 °F77%29.80 "Hg
* Reported Aug 22 12:03 AM — Sep 6 12:58 AM, Wake Island, Weather by CustomWeather, © 2015

Note: Actual official high and low records may vary slightly from our data, if they occured in-between our weather recording intervals... More about our weather records

Advertising

Wake Island weather history for previous 24 hours

 ConditionsComfort  
Time TempWeatherWind HumidityBarometerVisibility
12:58 AM
Sun, Sep 6
84 °FClear.8 mph80%29.72 "HgN/A
12:02 AM84 °FPartly cloudy.7 mph84%29.73 "Hg2 mi
11:58 PM
Sat, Sep 5
84 °FLight rain. Partly cloudy.6 mph84%29.75 "Hg1 mi
10:58 PM85 °FPassing clouds.5 mph81%29.77 "HgN/A
9:58 PM85 °FClear.6 mph79%29.76 "HgN/A
8:58 PM85 °FClear.6 mph76%29.76 "HgN/A
7:58 PM85 °FSunny.9 mph76%29.75 "HgN/A
6:58 PM87 °FHaze.13 mph75%29.74 "Hg5 mi
5:58 PM87 °FPassing clouds.10 mph73%29.73 "HgN/A
4:58 PM88 °FSunny.7 mph70%29.72 "HgN/A
3:58 PM88 °FSunny.7 mph70%29.73 "HgN/A
2:58 PM89 °FPassing clouds.10 mph69%29.75 "HgN/A
1:58 PM88 °FPassing clouds.8 mph70%29.77 "HgN/A
12:58 PM88 °FPassing clouds.8 mph71%29.78 "HgN/A
11:58 AM88 °FScattered clouds.10 mph71%29.80 "HgN/A
11:03 AM86 °FBroken clouds.13 mph79%29.80 "HgN/A
10:58 AM86 °FBroken clouds.10 mph76%29.82 "HgN/A
9:58 AM87 °FBroken clouds.8 mph75%29.83 "HgN/A
8:58 AM86 °FOvercast.9 mph77%29.83 "Hg6 mi
7:58 AM85 °FOvercast.5 mph79%29.81 "Hg6 mi
6:58 AM83 °FPassing clouds.7 mph84%29.80 "Hg5 mi
5:58 AM84 °FPassing clouds.9 mph78%29.78 "HgN/A
4:58 AM84 °FClear.7 mph77%29.78 "Hg6 mi
3:58 AM83 °FClear.6 mph76%29.78 "Hg6 mi
2:58 AM84 °FClear.6 mph74%29.79 "HgN/A
Weather by CustomWeather, © 2015

See weather overviewHow to use our weather pages